Retour au catalogue

STARLINK-2464

ActifCommunicationsVLEO
NORAD 48123·PAYLOAD·🇺🇸 United States

Lancé Apr 7, 2021 depuis Cape Canaveral Space Force Station

Loading…

Prochains Passages (prochaines 24 heures)

TLE

FraisSource: CelesTrak SupGP

Époque: Sep 14, 2026, 20:19 UTC

1 48123C 21027AH  26257.84701389 -.00011938  00000+0 -38385-3 0  2572
2 48123  53.1593 352.3237 0000922  84.7127 103.3805 15.31713431    13

Suivez STARLINK-2464 en temps réel avec AllMySat

Download on the App Store